THORAD AGENA D DEB, 4745

Orbit data source: Space-Track

THORAD AGENA D DEB, 4745 is space debris in SSO originally from a launch on Wed, 08 Apr 1970 UTC launched from the Air Force Western Test Range (AFWTR). Debris objects in space refer to the collection of defunct objects orbiting the Earth. Examples of debris include non-operational satellites, rocket bodies, and fragments generated from explosions, collisions, or faulty payload assembly.

Loading next visibility...
Identifier
4745, 1970-025CU
Orbit
SSO
Country
Flag of USUS
Related business
Manufacturer
Unknown
Mission
Spacecraft
Bus & Motor
Unknown
Mass
Unknown
Launch date (UTC)
1970-04-08 (56 years ago)
Launch vehicle
Unknown
Launch site
Air Force Western Test Range (AFWTR)
Object type
Payload
Rocket body
Debris
Shape & HBR
Unknown shape, 0.1 m
Radar Cross Section
Small (<0.1 m²)

Expand to show TLE details & history
Last TLE update: 1 day ago

TLE from 1 day ago
0 THORAD AGENA D DEB
1 04745U 70025CU  25291.78766041  .00003039  00000-0  21739-2 0  9991
2 04745 100.0815 242.7556 0026031 283.7758  76.0504 13.97916192787530
Epoch: 2025-10-18T18:54Z
TLE epoch observation values (Epoch: 2025-10-18T18:54:13.859Z)
Latitude
-0.0001°
Longitude
-68.31579°
Altitude
899.335 km
Speed
7.405 km/s
True Right ascension
16h 11m 01s
True Declination
0° 00' 00"
Sunlit
Object was in daylight at epoch
Visualization orbit readout
Latitude
Unknown
Longitude
Unknown
Altitude
Unknown
Speed
Unknown
Apparent Right ascension
Unknown
Apparent Declination
Unknown
Sunlit
N/A
Visualization observer readout
Local Sidereal Time
15:35:31
Azimuth
Unknown
Elevation
Unknown
Doppler factor
Unknown
Orbital elements
Apogee altitude
917.219 km
Perigee altitude
879.337 km
Semi-major axis
7,276.415 km
Eccentricity
0.0026
Inclination
100.0815°
RAAN
242.7556°
Arg. of periapsis
283.7758°
True anomaly
76.34012°
Mean anomaly
76.0504°
Eccentric anomaly
76.19524°
Mean motion
3.49677 °/min
Orbital period
102.95 mins
BSTAR
0.0021739
Loading maneuver chart data...
Computing Atmospheric mass density...

Documentation

Showing up to 5 results
|